SXS8HL EGCC-LOWW

Flight info

Callsign SXS8HL
Flight time N/A
Altitude 35000
Route SONEX UL975 DESIG L603 DOLAS DCT NAVPI DCT TULIP DCT NOLRU DCT DOJOH DCT DODEN DCT NEGIX DCT DINKU DCT BESNI DCT LATLO DCT OBEDI DCT ABTAN
Aircraft A320/M-SDE3FGHIRWY/LB1

Departure

Time N/A
Airport Manchester Airport (EGCC)

Arrival

Time 2026-05-04 19:10
Airport Vienna International Airport (LOWW)
Time Latitude Longitude Altitude Speed Heading
2026-05-04 18:43 47.35485 13.35305 38317 ft 469 kts 99°
2026-05-04 18:43 47.35339 13.40112 38328 ft 472 kts 86°
2026-05-04 18:44 47.35899 13.49803 38387 ft 476 kts 85°
2026-05-04 18:44 47.36504 13.59573 38469 ft 480 kts 85°
2026-05-04 18:45 47.37102 13.69395 38526 ft 482 kts 85°
2026-05-04 18:45 47.37693 13.79281 38586 ft 485 kts 85°
2026-05-04 18:46 47.38277 13.89178 38637 ft 487 kts 85°
2026-05-04 18:46 47.38570 13.94189 38759 ft 486 kts 85°
2026-05-04 18:46 47.38860 13.99150 38917 ft 484 kts 85°
2026-05-04 18:47 47.39436 14.09044 39011 ft 485 kts 85°
2026-05-04 18:47 47.40007 14.18898 39113 ft 486 kts 85°
2026-05-04 18:48 47.40572 14.28827 39154 ft 481 kts 85°
2026-05-04 18:48 47.41119 14.38560 38860 ft 474 kts 85°
2026-05-04 18:48 47.41391 14.43445 38257 ft 479 kts 85°
2026-05-04 18:49 47.41665 14.48280 37752 ft 466 kts 85°
2026-05-04 18:49 47.41937 14.52984 37134 ft 454 kts 85°
2026-05-04 18:49 47.42211 14.57592 36468 ft 445 kts 85°
2026-05-04 18:49 47.42750 14.61971 35828 ft 436 kts 72°
2026-05-04 18:50 47.43664 14.66224 35118 ft 430 kts 72°
2026-05-04 18:50 47.44571 14.70397 34398 ft 424 kts 72°
2026-05-04 18:50 47.45488 14.74621 32638 ft 442 kts 72°
2026-05-04 18:50 47.46421 14.78930 32100 ft 429 kts 72°
2026-05-04 18:51 47.47311 14.83027 31926 ft 409 kts 72°
2026-05-04 18:51 47.48169 14.86985 31472 ft 399 kts 72°
2026-05-04 18:51 47.49008 14.90867 30879 ft 394 kts 72°
2026-05-04 18:51 47.49823 14.94652 30298 ft 389 kts 72°
2026-05-04 18:52 47.50640 14.98452 29632 ft 385 kts 72°
2026-05-04 18:52 47.51449 15.02214 28985 ft 380 kts 72°
2026-05-04 18:52 47.52246 15.05921 28331 ft 375 kts 72°
2026-05-04 18:52 47.53030 15.09586 27717 ft 370 kts 72°
2026-05-04 18:53 47.53799 15.13194 27100 ft 365 kts 72°
2026-05-04 18:53 47.54557 15.16759 26452 ft 361 kts 72°
2026-05-04 18:53 47.55302 15.20259 25748 ft 361 kts 72°
2026-05-04 18:53 47.56059 15.23816 24999 ft 362 kts 72°
2026-05-04 18:54 47.57057 15.27212 24243 ft 360 kts 53°
2026-05-04 18:54 47.58637 15.30067 23471 ft 359 kts 46°
2026-05-04 18:54 47.60337 15.32789 22711 ft 357 kts 45°
2026-05-04 18:54 47.62028 15.35457 21985 ft 354 kts 45°
2026-05-04 18:55 47.63719 15.38096 21293 ft 350 kts 44°
2026-05-04 18:55 47.67206 15.42990 20013 ft 344 kts 41°
2026-05-04 18:55 47.68996 15.45340 19370 ft 341 kts 41°
2026-05-04 18:56 47.70780 15.47663 18730 ft 339 kts 41°
2026-05-04 18:56 47.72524 15.49943 18124 ft 337 kts 41°
2026-05-04 18:56 47.74270 15.52250 17431 ft 334 kts 41°
2026-05-04 18:56 47.75997 15.54554 16746 ft 332 kts 42°
2026-05-04 18:57 47.77704 15.56846 16119 ft 329 kts 42°
2026-05-04 18:57 47.79396 15.59128 15509 ft 327 kts 42°
2026-05-04 18:57 47.81078 15.61397 14915 ft 325 kts 43°
2026-05-04 18:57 47.82742 15.63643 14353 ft 322 kts 43°
2026-05-04 18:58 47.84398 15.65877 13784 ft 319 kts 42°
2026-05-04 18:58 47.86016 15.68060 13160 ft 317 kts 42°
2026-05-04 18:58 47.87641 15.70255 12566 ft 314 kts 43°
2026-05-04 18:58 47.89249 15.72434 11970 ft 310 kts 42°
2026-05-04 18:59 47.90839 15.74590 11398 ft 307 kts 43°
2026-05-04 18:59 47.92418 15.76731 10843 ft 304 kts 42°
2026-05-04 18:59 47.93978 15.78847 10294 ft 302 kts 43°
2026-05-04 18:59 47.95525 15.80949 9782 ft 298 kts 43°
2026-05-04 19:00 47.97036 15.83004 9227 ft 295 kts 43°
2026-05-04 19:00 47.98549 15.85063 8639 ft 292 kts 42°
2026-05-04 19:00 48.00048 15.87101 8079 ft 290 kts 42°
2026-05-04 19:00 48.01534 15.89123 7468 ft 288 kts 43°
2026-05-04 19:01 48.03015 15.91145 6862 ft 288 kts 43°
2026-05-04 19:01 48.04486 15.93155 6301 ft 285 kts 43°
2026-05-04 19:01 48.05934 15.95135 5946 ft 274 kts 43°
2026-05-04 19:01 48.07310 15.97015 5612 ft 265 kts 43°
2026-05-04 19:02 48.08663 15.98863 5159 ft 263 kts 44°
2026-05-04 19:02 48.10003 16.00700 4672 ft 261 kts 44°
2026-05-04 19:02 48.11345 16.02539 4136 ft 260 kts 44°
2026-05-04 19:02 48.12666 16.04344 3988 ft 260 kts 44°
2026-05-04 19:03 48.14012 16.06183 3987 ft 263 kts 44°
2026-05-04 19:03 48.15370 16.08040 4000 ft 266 kts 44°
2026-05-04 19:03 48.16732 16.09911 3993 ft 265 kts 44°
2026-05-04 19:03 48.18048 16.11768 4003 ft 260 kts 45°
2026-05-04 19:04 48.19372 16.13665 3994 ft 264 kts 45°
2026-05-04 19:04 48.20711 16.15547 3996 ft 264 kts 44°
2026-05-04 19:04 48.21999 16.17497 3990 ft 263 kts 53°
2026-05-04 19:04 48.22944 16.19800 3983 ft 257 kts 78°
2026-05-04 19:05 48.22901 16.22374 3999 ft 247 kts 112°
2026-05-04 19:05 48.22182 16.24680 3996 ft 239 kts 131°
2026-05-04 19:05 48.21104 16.26381 4003 ft 220 kts 137°
2026-05-04 19:05 48.20324 16.28291 4000 ft 211 kts 120°
2026-05-04 19:06 48.19726 16.30253 3923 ft 203 kts 120°
2026-05-04 19:06 48.19127 16.32162 3714 ft 197 kts 121°
2026-05-04 19:06 48.18558 16.33943 3446 ft 186 kts 122°
2026-05-04 19:06 48.18016 16.35628 3206 ft 173 kts 123°
2026-05-04 19:07 48.17508 16.37205 2983 ft 163 kts 124°
2026-05-04 19:07 48.17031 16.38684 2769 ft 153 kts 124°
2026-05-04 19:07 48.16582 16.40074 2570 ft 144 kts 124°
2026-05-04 19:07 48.16156 16.41377 2402 ft 138 kts 124°
2026-05-04 19:08 48.15737 16.42660 2207 ft 136 kts 123°
2026-05-04 19:08 48.15325 16.43924 2018 ft 134 kts 123°
2026-05-04 19:08 48.14915 16.45182 1839 ft 135 kts 124°
2026-05-04 19:08 48.14506 16.46445 1652 ft 134 kts 123°
2026-05-04 19:09 48.14100 16.47696 1462 ft 135 kts 120°
2026-05-04 19:09 48.13691 16.48955 1277 ft 134 kts 119°
2026-05-04 19:09 48.13282 16.50217 1096 ft 134 kts 118°
2026-05-04 19:09 48.12875 16.51473 914 ft 134 kts 117°
2026-05-04 19:10 48.12484 16.52728 754 ft 132 kts 119°
2026-05-04 19:10 48.12077 16.53961 603 ft 126 kts 116°
2026-05-04 19:10 48.11781 16.54883 589 ft 69 kts 116°
2026-05-04 19:10 48.11609 16.55400 597 ft 41 kts 115°
2026-05-04 19:11 48.11520 16.55717 603 ft 27 kts 109°